When you browse on this site, cookies collect data to enhance your experience and personalize the content and advertising you see.
Visit our Privacy Policy to learn more. By continuing to use the site, you agree to this use of cookies and data.
  • In Latvia
  • List of Countries
  • For 7 days
  • Water Temperature
  • Weather Map
  • Weather Widgets
  • user-avatar
    Login

    Hourly Weather Knighton

    Today, 18 September, Wednesday

    Time Temperature Precipitation Wind Pressure Humidity
    00:00 +7°C° 0 mm 1 mps 741 mmHg 91%
    01:00 +6°C° 0 mm 0 mps 741 mmHg 91%
    02:00 +5°C° 0 mm 0 mps 741 mmHg 91%
    03:00 +5°C° 0 mm 0 mps 741 mmHg 92%
    04:00 +5°C° 0 mm 0 mps 741 mmHg 92%
    05:00 +5°C° 0 mm 0 mps 741 mmHg 92%
    06:00 +5°C° 0 mm 0 mps 742 mmHg 92%
    07:00 +7°C° 0 mm 0 mps 742 mmHg 87%
    08:00 +9°C° 0 mm 0 mps 742 mmHg 82%
    09:00 +11°C° 0 mm 0 mps 742 mmHg 77%
    10:00 +12°C° 0 mm 0 mps 742 mmHg 71%
    11:00 +15°C° 0 mm 1 mps 742 mmHg 66%
    12:00 +16°C° 0 mm 1 mps 742 mmHg 60%
    13:00 +16°C° 0 mm 1 mps 742 mmHg 61%
    14:00 +18°C° 0 mm 1 mps 742 mmHg 62%
    15:00 +18°C° 0 mm 1 mps 742 mmHg 63%
    16:00 +16°C° 0 mm 1 mps 742 mmHg 69%
    17:00 +14°C° 0 mm 1 mps 742 mmHg 75%
    18:00 +13°C° 0 mm 1 mps 742 mmHg 82%
    19:00 +12°C° 0 mm 1 mps 742 mmHg 84%
    20:00 +11°C° 0 mm 1 mps 742 mmHg 86%
    21:00 +10°C° 0 mm 1 mps 743 mmHg 88%
    22:00 +10°C° 0 mm 1 mps 743 mmHg 88%
    23:00 +8°C° 0 mm 0 mps 743 mmHg 88%

    Tomorrow, 19 September, Thursday

    Time Temperature Precipitation Wind Pressure Humidity
    00:00 +8°C° 0 mm 0 mps 743 mmHg 88%
    01:00 +8°C° 0 mm 0 mps 742 mmHg 88%
    02:00 +8°C° 0 mm 0 mps 742 mmHg 88%
    03:00 +8°C° 0 mm 0 mps 742 mmHg 88%
    04:00 +7°C° 0 mm 0 mps 742 mmHg 87%
    05:00 +7°C° 0 mm 0 mps 742 mmHg 87%
    06:00 +7°C° 0 mm 0 mps 742 mmHg 87%
    07:00 +9°C° 0 mm 0 mps 742 mmHg 83%
    08:00 +11°C° 0 mm 0 mps 743 mmHg 78%
    09:00 +13°C° 0 mm 0 mps 743 mmHg 74%
    10:00 +15°C° 0 mm 0 mps 743 mmHg 71%
    11:00 +16°C° 0 mm 0 mps 743 mmHg 68%
    12:00 +19°C° 0 mm 1 mps 743 mmHg 64%
    13:00 +19°C° 0 mm 1 mps 743 mmHg 64%
    14:00 +20°C° 0 mm 1 mps 743 mmHg 63%
    15:00 +20°C° 0 mm 1 mps 742 mmHg 63%
    16:00 +18°C° 0 mm 1 mps 742 mmHg 69%
    17:00 +16°C° 0 mm 1 mps 742 mmHg 74%
    18:00 +14°C° 0 mm 1 mps 741 mmHg 80%
    19:00 +12°C° 0 mm 0 mps 741 mmHg 82%
    20:00 +12°C° 0 mm 0 mps 742 mmHg 83%
    21:00 +11°C° 0 mm 0 mps 742 mmHg 85%
    22:00 +10°C° 0 mm 0 mps 741 mmHg 86%
    23:00 +10°C° 0 mm 0 mps 741 mmHg 87%

    Day after tomorrow, 20 September, Friday

    Time Temperature Precipitation Wind Pressure Humidity
    00:00 +10°C° 0 mm 0 mps 741 mmHg 87%
    01:00 +9°C° 0 mm 0 mps 740 mmHg 88%
    02:00 +10°C° 0 mm 1 mps 740 mmHg 90%
    03:00 +10°C° 0 mm 1 mps 740 mmHg 91%
    04:00 +10°C° 0 mm 1 mps 739 mmHg 92%
    05:00 +9°C° 0 mm 1 mps 739 mmHg 93%
    06:00 +9°C° 0 mm 1 mps 738 mmHg 94%
    07:00 +10°C° 0 mm 2 mps 738 mmHg 90%
    08:00 +11°C° 0 mm 3 mps 738 mmHg 86%
    09:00 +12°C° 0 mm 3 mps 738 mmHg 82%
    10:00 +14°C° 0 mm 4 mps 738 mmHg 77%
    11:00 +15°C° 0 mm 5 mps 738 mmHg 72%
    12:00 +16°C° 0 mm 6 mps 737 mmHg 67%
    13:00 +16°C° 0 mm 6 mps 736 mmHg 66%
    14:00 +17°C° 0 mm 6 mps 736 mmHg 65%
    15:00 +17°C° 0 mm 7 mps 735 mmHg 64%
    16:00 +16°C° 0 mm 6 mps 734 mmHg 66%
    17:00 +14°C° 0 mm 6 mps 733 mmHg 68%
    18:00 +13°C° 0 mm 6 mps 733 mmHg 71%
    19:00 +11°C° 0 mm 6 mps 732 mmHg 71%
    20:00 +10°C° 0 mm 6 mps 732 mmHg 72%
    21:00 +9°C° 0 mm 6 mps 732 mmHg 73%
    22:00 +9°C° 0 mm 5 mps 731 mmHg 75%
    23:00 +8°C° 0 mm 4 mps 731 mmHg 78%

    21 September, Saturday

    Time Temperature Precipitation Wind Pressure Humidity
    00:00 +8°C° 0 mm 3 mps 730 mmHg 80%
    01:00 +8°C° 0 mm 3 mps 730 mmHg 80%
    02:00 +8°C° 0 mm 3 mps 729 mmHg 79%
    03:00 +8°C° 0 mm 3 mps 729 mmHg 79%
    04:00 +8°C° 0 mm 3 mps 728 mmHg 79%
    05:00 +8°C° 0 mm 2 mps 727 mmHg 78%
    06:00 +7°C° 0 mm 2 mps 727 mmHg 78%
    07:00 +9°C° 0 mm 3 mps 727 mmHg 76%
    08:00 +11°C° 0 mm 3 mps 727 mmHg 74%
    09:00 +12°C° 0 mm 4 mps 727 mmHg 72%
    10:00 +14°C° 0 mm 4 mps 727 mmHg 72%
    11:00 +15°C° 0 mm 4 mps 726 mmHg 72%
    12:00 +17°C° 0 mm 5 mps 726 mmHg 71%
    13:00 +19°C° 0 mm 5 mps 725 mmHg 72%
    14:00 +20°C° 0 mm 6 mps 725 mmHg 73%
    15:00 +21°C° 0 mm 7 mps 724 mmHg 74%
    16:00 +20°C° 0 mm 6 mps 724 mmHg 78%
    17:00 +19°C° 0 mm 5 mps 724 mmHg 81%
    18:00 +17°C° 0 mm 5 mps 723 mmHg 85%
    19:00 +17°C° 0.2 mm 4 mps 723 mmHg 88%
    20:00 +15°C° 0.2 mm 4 mps 723 mmHg 91%
    21:00 +16°C° 0.2 mm 3 mps 723 mmHg 93%
    22:00 +14°C° 0.1 mm 3 mps 722 mmHg 94%
    23:00 +15°C° 0.1 mm 2 mps 722 mmHg 95%

    22 September, Sunday

    Time Temperature Precipitation Wind Pressure Humidity
    00:00 +14°C° 0.1 mm 2 mps 722 mmHg 96%
    01:00 +15°C° 0.2 mm 2 mps 722 mmHg 97%
    02:00 +15°C° 0.2 mm 2 mps 722 mmHg 97%
    03:00 +15°C° 0.2 mm 2 mps 722 mmHg 97%
    04:00 +14°C° 0.1 mm 3 mps 722 mmHg 96%
    05:00 +13°C° 0.1 mm 3 mps 722 mmHg 95%
    06:00 +13°C° 0.1 mm 3 mps 722 mmHg 95%
    07:00 +13°C° 0 mm 4 mps 722 mmHg 91%
    08:00 +14°C° 0 mm 4 mps 723 mmHg 88%
    09:00 +14°C° 0 mm 5 mps 723 mmHg 85%
    10:00 +15°C° 0.1 mm 5 mps 723 mmHg 81%
    11:00 +16°C° 0.1 mm 6 mps 723 mmHg 77%
    12:00 +16°C° 0.1 mm 7 mps 723 mmHg 73%
    13:00 +16°C° 0.3 mm 6 mps 723 mmHg 74%
    14:00 +16°C° 0.3 mm 6 mps 723 mmHg 74%
    15:00 +16°C° 0.3 mm 6 mps 723 mmHg 75%
    16:00 +14°C° 0 mm 5 mps 723 mmHg 79%
    17:00 +13°C° 0 mm 5 mps 723 mmHg 84%
    18:00 +12°C° 0 mm 4 mps 724 mmHg 88%
    19:00 +10°C° 0 mm 5 mps 725 mmHg 88%
    20:00 +10°C° 0 mm 5 mps 725 mmHg 87%
    21:00 +10°C° 0 mm 6 mps 726 mmHg 87%
    22:00 +10°C° 0 mm 6 mps 726 mmHg 88%
    23:00 +10°C° 0 mm 6 mps 727 mmHg 88%

    23 September, Monday

    Time Temperature Precipitation Wind Pressure Humidity
    00:00 +9°C° 0 mm 6 mps 727 mmHg 88%
    01:00 +9°C° 0 mm 5 mps 727 mmHg 90%
    02:00 +8°C° 0 mm 4 mps 728 mmHg 92%
    03:00 +8°C° 0 mm 3 mps 728 mmHg 95%
    04:00 +8°C° 0 mm 3 mps 728 mmHg 95%
    05:00 +8°C° 0 mm 3 mps 728 mmHg 95%
    06:00 +8°C° 0 mm 2 mps 729 mmHg 96%
    07:00 +9°C° 0 mm 3 mps 729 mmHg 92%
    08:00 +11°C° 0 mm 3 mps 729 mmHg 87%
    09:00 +13°C° 0 mm 4 mps 730 mmHg 83%
    10:00 +13°C° 0 mm 4 mps 730 mmHg 79%
    11:00 +14°C° 0 mm 4 mps 730 mmHg 75%
    12:00 +15°C° 0 mm 5 mps 730 mmHg 70%
    13:00 +15°C° 0 mm 5 mps 729 mmHg 71%
    14:00 +15°C° 0 mm 5 mps 729 mmHg 71%
    15:00 +15°C° 0 mm 4 mps 729 mmHg 72%
    16:00 +14°C° 0.4 mm 4 mps 728 mmHg 80%
    17:00 +13°C° 0.4 mm 4 mps 728 mmHg 87%
    18:00 +12°C° 0.4 mm 4 mps 727 mmHg 95%
    19:00 +12°C° 0.1 mm 4 mps 727 mmHg 96%
    20:00 +11°C° 0.1 mm 3 mps 727 mmHg 96%
    21:00 +11°C° 0.1 mm 3 mps 727 mmHg 97%
    22:00 +12°C° 0.1 mm 3 mps 726 mmHg 98%
    23:00 +13°C° 0.1 mm 2 mps 726 mmHg 98%
    Show more